Year,Month,Day,Hour,Minute,Value (Times are PST for temperature in C)
2006,07,22,00,00,22.10
2006,07,22,00,01,22.10
2006,07,22,00,02,22.10
2006,07,22,00,03,22.10
2006,07,22,00,04,22.00
2006,07,22,00,05,22.00
2006,07,22,00,06,22.00
2006,07,22,00,07,22.00
2006,07,22,00,08,22.00
2006,07,22,00,09,22.00
2006,07,22,00,10,22.00
2006,07,22,00,11,22.00
2006,07,22,00,12,22.00
2006,07,22,00,13,22.00
2006,07,22,00,14,21.90
2006,07,22,00,15,21.90
2006,07,22,00,16,21.90
2006,07,22,00,17,21.90
2006,07,22,00,18,21.90
2006,07,22,00,19,21.90
2006,07,22,00,20,21.80
2006,07,22,00,21,21.80
2006,07,22,00,22,21.80
2006,07,22,00,23,21.80
2006,07,22,00,24,21.80
2006,07,22,00,25,21.80
2006,07,22,00,26,21.70
2006,07,22,00,27,21.70
2006,07,22,00,28,21.70
2006,07,22,00,29,21.70
2006,07,22,00,30,21.70
2006,07,22,00,31,21.70
2006,07,22,00,32,21.70
2006,07,22,00,33,21.70
2006,07,22,00,34,21.70
2006,07,22,00,35,21.70
2006,07,22,00,36,21.70
2006,07,22,00,37,21.70
2006,07,22,00,38,21.60
2006,07,22,00,39,21.60
2006,07,22,00,40,21.60
2006,07,22,00,41,21.60
2006,07,22,00,42,21.60
2006,07,22,00,43,21.60
2006,07,22,00,44,21.60
2006,07,22,00,45,21.60
2006,07,22,00,46,21.60
2006,07,22,00,47,21.60
2006,07,22,00,48,21.60
2006,07,22,00,49,21.60
2006,07,22,00,50,21.60
2006,07,22,00,51,21.60
2006,07,22,00,52,21.60
2006,07,22,00,53,21.60
2006,07,22,00,54,21.60
2006,07,22,00,55,21.60
2006,07,22,00,56,21.60
2006,07,22,00,57,21.50
2006,07,22,00,58,21.40
2006,07,22,00,59,21.40
2006,07,22,01,00,21.40
2006,07,22,01,01,21.40
2006,07,22,01,02,21.40
2006,07,22,01,03,21.40
2006,07,22,01,04,21.40
2006,07,22,01,05,21.40
2006,07,22,01,06,21.40
2006,07,22,01,07,21.40
2006,07,22,01,08,21.40
2006,07,22,01,09,21.40
2006,07,22,01,10,21.30
2006,07,22,01,11,21.30
2006,07,22,01,12,21.30
2006,07,22,01,13,21.30
2006,07,22,01,14,21.30
2006,07,22,01,15,21.30
2006,07,22,01,16,21.30
2006,07,22,01,17,21.30
2006,07,22,01,18,21.30
2006,07,22,01,19,21.20
2006,07,22,01,20,21.20
2006,07,22,01,21,21.20
2006,07,22,01,22,21.20
2006,07,22,01,23,21.20
2006,07,22,01,24,21.20
2006,07,22,01,25,21.20
2006,07,22,01,26,21.20
2006,07,22,01,27,21.20
2006,07,22,01,28,21.20
2006,07,22,01,29,21.30
2006,07,22,01,30,21.30
2006,07,22,01,31,21.30
2006,07,22,01,32,21.30
2006,07,22,01,33,21.30
2006,07,22,01,34,21.30
2006,07,22,01,35,21.30
2006,07,22,01,36,21.20
2006,07,22,01,37,21.20
2006,07,22,01,38,21.20
2006,07,22,01,39,21.20
2006,07,22,01,40,21.20
2006,07,22,01,41,21.10
2006,07,22,01,42,21.10
2006,07,22,01,43,21.10
2006,07,22,01,44,21.10
2006,07,22,01,45,21.00
2006,07,22,01,46,21.00
2006,07,22,01,47,21.00
2006,07,22,01,48,21.00
2006,07,22,01,49,21.00
2006,07,22,01,50,20.90
2006,07,22,01,51,20.90
2006,07,22,01,52,20.90
2006,07,22,01,53,20.90
2006,07,22,01,54,20.80
2006,07,22,01,55,20.80
2006,07,22,01,56,20.80
2006,07,22,01,57,20.80
2006,07,22,01,58,20.80
2006,07,22,01,59,20.70
2006,07,22,02,00,20.70
2006,07,22,02,01,20.70
2006,07,22,02,02,20.70
2006,07,22,02,03,20.70
2006,07,22,02,04,20.60
2006,07,22,02,05,20.60
2006,07,22,02,06,20.60
2006,07,22,02,07,20.60
2006,07,22,02,08,20.60
2006,07,22,02,09,20.60
2006,07,22,02,10,20.60
2006,07,22,02,11,20.60
2006,07,22,02,12,20.60
2006,07,22,02,13,20.50
2006,07,22,02,14,20.50
2006,07,22,02,15,20.50
2006,07,22,02,16,20.50
2006,07,22,02,17,20.50
2006,07,22,02,18,20.50
2006,07,22,02,19,20.50
2006,07,22,02,20,20.40
2006,07,22,02,21,20.40
2006,07,22,02,22,20.40
2006,07,22,02,23,20.40
2006,07,22,02,24,20.40
2006,07,22,02,25,20.40
2006,07,22,02,26,20.40
2006,07,22,02,27,20.40
2006,07,22,02,28,20.40
2006,07,22,02,29,20.40
2006,07,22,02,30,20.40
2006,07,22,02,31,20.40
2006,07,22,02,32,20.40
2006,07,22,02,33,20.40
2006,07,22,02,34,20.40
2006,07,22,02,35,20.40
2006,07,22,02,36,20.40
2006,07,22,02,37,20.50
2006,07,22,02,38,20.50
2006,07,22,02,39,20.50
2006,07,22,02,40,20.50
2006,07,22,02,41,20.50
2006,07,22,02,42,20.50
2006,07,22,02,43,20.50
2006,07,22,02,44,20.50
2006,07,22,02,45,20.50
2006,07,22,02,46,20.50
2006,07,22,02,47,20.50
2006,07,22,02,48,20.50
2006,07,22,02,49,20.50
2006,07,22,02,50,20.50
2006,07,22,02,51,20.50
2006,07,22,02,52,20.50
2006,07,22,02,53,20.50
2006,07,22,02,54,20.50
2006,07,22,02,55,20.50
2006,07,22,02,56,20.50
2006,07,22,02,57,20.50
2006,07,22,02,58,20.50
2006,07,22,02,59,20.50
2006,07,22,03,00,20.50
2006,07,22,03,01,20.50
2006,07,22,03,02,20.50
2006,07,22,03,03,20.50
2006,07,22,03,04,20.50
2006,07,22,03,05,20.50
2006,07,22,03,06,20.50
2006,07,22,03,07,20.50
2006,07,22,03,08,20.50
2006,07,22,03,09,20.60
2006,07,22,03,10,20.60
2006,07,22,03,11,20.60
2006,07,22,03,12,20.60
2006,07,22,03,13,20.60
2006,07,22,03,14,20.60
2006,07,22,03,15,20.70
2006,07,22,03,16,20.70
2006,07,22,03,17,20.80
2006,07,22,03,18,20.80
2006,07,22,03,19,20.90
2006,07,22,03,20,20.90
2006,07,22,03,21,21.00
2006,07,22,03,22,21.00
2006,07,22,03,23,21.10
2006,07,22,03,24,21.20
2006,07,22,03,25,21.30
2006,07,22,03,26,21.30
2006,07,22,03,27,21.30
2006,07,22,03,28,21.30
2006,07,22,03,29,21.30
2006,07,22,03,30,21.20
2006,07,22,03,31,21.20
2006,07,22,03,32,21.10
2006,07,22,03,33,21.10
2006,07,22,03,34,21.00
2006,07,22,03,35,21.00
2006,07,22,03,36,20.90
2006,07,22,03,37,20.90
2006,07,22,03,38,20.90
2006,07,22,03,39,20.80
2006,07,22,03,40,20.80
2006,07,22,03,41,20.80
2006,07,22,03,42,20.80
2006,07,22,03,43,20.80
2006,07,22,03,44,20.70
2006,07,22,03,45,20.70
2006,07,22,03,46,20.70
2006,07,22,03,47,20.70
2006,07,22,03,48,20.70
2006,07,22,03,49,20.70
2006,07,22,03,50,20.70
2006,07,22,03,51,20.70
2006,07,22,03,52,20.70
2006,07,22,03,53,20.70
2006,07,22,03,54,20.70
2006,07,22,03,55,20.70
2006,07,22,03,56,20.60
2006,07,22,03,57,20.60
2006,07,22,03,58,20.60
2006,07,22,03,59,20.60
2006,07,22,04,00,20.60
2006,07,22,04,01,20.50
2006,07,22,04,02,20.50
2006,07,22,04,03,20.50
2006,07,22,04,04,20.50
2006,07,22,04,05,20.50
2006,07,22,04,06,20.50
2006,07,22,04,07,20.50
2006,07,22,04,08,20.50
2006,07,22,04,09,20.40
2006,07,22,04,10,20.40
2006,07,22,04,11,20.40
2006,07,22,04,12,20.40
2006,07,22,04,13,20.40
2006,07,22,04,14,20.40
2006,07,22,04,15,20.40
2006,07,22,04,16,20.40
2006,07,22,04,17,20.40
2006,07,22,04,18,20.40
2006,07,22,04,19,20.40
2006,07,22,04,20,20.40
2006,07,22,04,21,20.40
2006,07,22,04,22,20.30
2006,07,22,04,23,20.30
2006,07,22,04,24,20.30
2006,07,22,04,25,20.30
2006,07,22,04,26,20.30
2006,07,22,04,27,20.30
2006,07,22,04,28,20.20
2006,07,22,04,29,20.20
2006,07,22,04,30,20.20
2006,07,22,04,31,20.20
2006,07,22,04,32,20.20
2006,07,22,04,33,20.20
2006,07,22,04,34,20.20
2006,07,22,04,35,20.20
2006,07,22,04,36,20.20
2006,07,22,04,37,20.20
2006,07,22,04,38,20.20
2006,07,22,04,39,20.20
2006,07,22,04,40,20.20
2006,07,22,04,41,20.20
2006,07,22,04,42,20.20
2006,07,22,04,43,20.20
2006,07,22,04,44,20.20
2006,07,22,04,45,20.20
2006,07,22,04,46,20.20
2006,07,22,04,47,20.20
2006,07,22,04,48,20.20
2006,07,22,04,49,20.20
2006,07,22,04,50,20.20
2006,07,22,04,51,20.20
2006,07,22,04,52,20.20
2006,07,22,04,53,20.20
2006,07,22,04,54,20.20
2006,07,22,04,55,20.20
2006,07,22,04,56,20.20
2006,07,22,04,57,20.20
2006,07,22,04,58,20.10
2006,07,22,04,59,20.10
2006,07,22,05,00,20.10
2006,07,22,05,01,20.10
2006,07,22,05,02,19.90
2006,07,22,05,03,19.90
2006,07,22,05,04,19.90
2006,07,22,05,05,19.90
2006,07,22,05,06,19.90
2006,07,22,05,07,19.90
2006,07,22,05,08,19.90
2006,07,22,05,09,19.90
2006,07,22,05,10,19.90
2006,07,22,05,11,19.90
2006,07,22,05,12,19.90
2006,07,22,05,13,19.90
2006,07,22,05,14,19.90
2006,07,22,05,15,19.90
2006,07,22,05,16,19.80
2006,07,22,05,17,19.80
2006,07,22,05,18,19.80
2006,07,22,05,19,19.80
2006,07,22,05,20,19.80
2006,07,22,05,21,19.80
2006,07,22,05,22,19.80
2006,07,22,05,23,19.80
2006,07,22,05,24,19.80
2006,07,22,05,25,19.80
2006,07,22,05,26,19.80
2006,07,22,05,27,19.70
2006,07,22,05,28,19.70
2006,07,22,05,29,19.70
2006,07,22,05,30,19.70
2006,07,22,05,31,19.70
2006,07,22,05,32,19.70
2006,07,22,05,33,19.70
2006,07,22,05,34,19.70
2006,07,22,05,35,19.70
2006,07,22,05,36,19.70
2006,07,22,05,37,19.60
2006,07,22,05,38,19.60
2006,07,22,05,39,19.60
2006,07,22,05,40,19.60
2006,07,22,05,41,19.60
2006,07,22,05,42,19.60
2006,07,22,05,43,19.60
2006,07,22,05,44,19.60
2006,07,22,05,45,19.60
2006,07,22,05,46,19.60
2006,07,22,05,47,19.60
2006,07,22,05,48,19.60
2006,07,22,05,49,19.60
2006,07,22,05,50,19.60
2006,07,22,05,51,19.60
2006,07,22,05,52,19.70
2006,07,22,05,53,19.70
2006,07,22,05,54,19.70
2006,07,22,05,55,19.70
2006,07,22,05,56,19.70
2006,07,22,05,57,19.70
2006,07,22,05,58,19.70
2006,07,22,05,59,19.70
2006,07,22,06,00,19.70
2006,07,22,06,01,19.70
2006,07,22,06,02,19.70
2006,07,22,06,03,19.70
2006,07,22,06,04,19.70
2006,07,22,06,05,19.70
2006,07,22,06,06,19.70
2006,07,22,06,07,19.70
2006,07,22,06,08,19.70
2006,07,22,06,09,19.70
2006,07,22,06,10,19.70
2006,07,22,06,11,19.70
2006,07,22,06,12,19.70
2006,07,22,06,13,19.70
2006,07,22,06,14,19.70
2006,07,22,06,15,19.70
2006,07,22,06,16,19.70
2006,07,22,06,17,19.70
2006,07,22,06,18,19.70
2006,07,22,06,19,19.70
2006,07,22,06,20,19.70
2006,07,22,06,21,19.70
2006,07,22,06,22,19.70
2006,07,22,06,23,19.70
2006,07,22,06,24,19.70
2006,07,22,06,25,19.70
2006,07,22,06,26,19.70
2006,07,22,06,27,19.70
2006,07,22,06,28,19.70
2006,07,22,06,29,19.70
2006,07,22,06,30,19.70
2006,07,22,06,31,19.70
2006,07,22,06,32,19.80
2006,07,22,06,33,19.80
2006,07,22,06,34,19.80
2006,07,22,06,35,19.80
2006,07,22,06,36,19.80
2006,07,22,06,37,19.90
2006,07,22,06,38,19.90
2006,07,22,06,39,19.90
2006,07,22,06,40,19.90
2006,07,22,06,41,19.90
2006,07,22,06,42,19.90
2006,07,22,06,43,19.90
2006,07,22,06,44,19.90
2006,07,22,06,45,19.90
2006,07,22,06,46,19.90
2006,07,22,06,47,20.00
2006,07,22,06,48,20.10
2006,07,22,06,49,20.10
2006,07,22,06,50,20.10
2006,07,22,06,51,20.10
2006,07,22,06,52,20.10
2006,07,22,06,53,20.20
2006,07,22,06,54,20.20
2006,07,22,06,55,20.20
2006,07,22,06,56,20.20
2006,07,22,06,57,20.20
2006,07,22,06,58,20.20
2006,07,22,06,59,20.30
2006,07,22,07,00,20.30
2006,07,22,07,01,20.40
2006,07,22,07,02,20.40
2006,07,22,07,03,20.50
2006,07,22,07,04,20.50
2006,07,22,07,05,20.60
2006,07,22,07,06,20.70
2006,07,22,07,07,20.70
2006,07,22,07,08,20.80
2006,07,22,07,09,20.90
2006,07,22,07,10,20.90
2006,07,22,07,11,21.00
2006,07,22,07,12,21.10
2006,07,22,07,13,21.20
2006,07,22,07,14,21.30
2006,07,22,07,15,21.40
2006,07,22,07,16,21.50
2006,07,22,07,17,21.60
2006,07,22,07,18,21.70
2006,07,22,07,19,21.80
2006,07,22,07,20,22.00
2006,07,22,07,21,22.10
2006,07,22,07,22,22.20
2006,07,22,07,23,22.30
2006,07,22,07,24,22.40
2006,07,22,07,25,22.50
2006,07,22,07,26,22.60
2006,07,22,07,27,22.60
2006,07,22,07,28,22.70
2006,07,22,07,29,22.70
2006,07,22,07,30,22.80
2006,07,22,07,31,22.90
2006,07,22,07,32,22.90
2006,07,22,07,33,23.10
2006,07,22,07,34,23.20
2006,07,22,07,35,23.30
2006,07,22,07,36,23.40
2006,07,22,07,37,23.50
2006,07,22,07,38,23.60
2006,07,22,07,39,23.70
2006,07,22,07,40,23.70
2006,07,22,07,41,23.80
2006,07,22,07,42,23.80
2006,07,22,07,43,23.80
2006,07,22,07,44,23.80
2006,07,22,07,45,23.80
2006,07,22,07,46,23.80
2006,07,22,07,47,23.80
2006,07,22,07,48,23.80
2006,07,22,07,49,23.80
2006,07,22,07,50,23.80
2006,07,22,07,51,23.80
2006,07,22,07,52,23.80
2006,07,22,07,53,23.70
2006,07,22,07,54,23.70
2006,07,22,07,55,23.70
2006,07,22,07,56,23.70
2006,07,22,07,57,23.70
2006,07,22,07,58,23.70
2006,07,22,07,59,23.70
2006,07,22,08,00,23.70
2006,07,22,08,01,23.70
2006,07,22,08,02,23.70
2006,07,22,08,03,23.70
2006,07,22,08,04,23.70
2006,07,22,08,05,23.70
2006,07,22,08,06,23.70
2006,07,22,08,07,23.80
2006,07,22,08,08,23.80
2006,07,22,08,09,23.90
2006,07,22,08,10,24.00
2006,07,22,08,11,24.10
2006,07,22,08,12,24.10
2006,07,22,08,13,24.20
2006,07,22,08,14,24.30
2006,07,22,08,15,24.40
2006,07,22,08,16,24.50
2006,07,22,08,17,24.50
2006,07,22,08,18,24.60
2006,07,22,08,19,24.60
2006,07,22,08,20,24.70
2006,07,22,08,21,24.90
2006,07,22,08,22,25.00
2006,07,22,08,23,25.10
2006,07,22,08,24,25.20
2006,07,22,08,25,25.30
2006,07,22,08,26,25.40
2006,07,22,08,27,25.40
2006,07,22,08,28,25.40
2006,07,22,08,29,25.50
2006,07,22,08,30,25.50
2006,07,22,08,31,25.60
2006,07,22,08,32,25.60
2006,07,22,08,33,25.60
2006,07,22,08,34,25.70
2006,07,22,08,35,25.80
2006,07,22,08,36,25.80
2006,07,22,08,37,25.80
2006,07,22,08,38,25.90
2006,07,22,08,39,26.00
2006,07,22,08,40,26.10
2006,07,22,08,41,26.20
2006,07,22,08,42,26.40
2006,07,22,08,43,26.50
2006,07,22,08,44,26.60
2006,07,22,08,45,26.70
2006,07,22,08,46,26.80
2006,07,22,08,47,26.80
2006,07,22,08,48,26.90
2006,07,22,08,49,26.90
2006,07,22,08,50,27.00
2006,07,22,08,51,27.10
2006,07,22,08,52,27.20
2006,07,22,08,53,27.20
2006,07,22,08,54,27.30
2006,07,22,08,55,27.30
2006,07,22,08,56,27.50
2006,07,22,08,57,27.60
2006,07,22,08,58,27.60
2006,07,22,08,59,27.60
2006,07,22,09,00,27.60
2006,07,22,09,01,27.60
2006,07,22,09,02,27.70
2006,07,22,09,03,27.70
2006,07,22,09,04,27.90
2006,07,22,09,05,27.90
2006,07,22,09,06,28.00
2006,07,22,09,07,28.00
2006,07,22,09,08,28.10
2006,07,22,09,09,28.00
2006,07,22,09,10,27.90
2006,07,22,09,11,27.90
2006,07,22,09,12,27.80
2006,07,22,09,13,27.70
2006,07,22,09,14,27.70
2006,07,22,09,15,27.70
2006,07,22,09,16,27.70
2006,07,22,09,17,27.70
2006,07,22,09,18,27.70
2006,07,22,09,19,27.80
2006,07,22,09,20,27.80
2006,07,22,09,21,27.90
2006,07,22,09,22,28.00
2006,07,22,09,23,28.20
2006,07,22,09,24,28.40
2006,07,22,09,25,28.60
2006,07,22,09,26,28.90
2006,07,22,09,27,28.90
2006,07,22,09,28,28.60
2006,07,22,09,29,28.00
2006,07,22,09,30,27.40
2006,07,22,09,31,26.90
2006,07,22,09,32,26.60
2006,07,22,09,33,26.30
2006,07,22,09,34,26.10
2006,07,22,09,35,26.00
2006,07,22,09,36,26.00
2006,07,22,09,37,26.00
2006,07,22,09,38,26.00
2006,07,22,09,39,26.10
2006,07,22,09,40,26.10
2006,07,22,09,41,26.20
2006,07,22,09,42,26.10
2006,07,22,09,43,26.10
2006,07,22,09,44,26.10
2006,07,22,09,45,26.10
2006,07,22,09,46,26.10
2006,07,22,09,47,26.00
2006,07,22,09,48,26.00
2006,07,22,09,49,26.00
2006,07,22,09,50,26.00
2006,07,22,09,51,26.00
2006,07,22,09,52,26.00
2006,07,22,09,53,26.10
2006,07,22,09,54,26.10
2006,07,22,09,55,26.20
2006,07,22,09,56,26.20
2006,07,22,09,57,26.30
2006,07,22,09,58,26.30
2006,07,22,09,59,26.30
2006,07,22,10,00,26.10
2006,07,22,10,01,26.00
2006,07,22,10,02,25.90
2006,07,22,10,03,25.90
2006,07,22,10,04,26.00
2006,07,22,10,05,26.10
2006,07,22,10,06,26.20
2006,07,22,10,07,26.40
2006,07,22,10,08,26.60
2006,07,22,10,09,26.70
2006,07,22,10,10,26.80
2006,07,22,10,11,26.90
2006,07,22,10,12,27.00
2006,07,22,10,13,27.10
2006,07,22,10,14,27.30
2006,07,22,10,15,27.30
2006,07,22,10,16,27.50
2006,07,22,10,17,27.60
2006,07,22,10,18,27.70
2006,07,22,10,19,27.80
2006,07,22,10,20,27.90
2006,07,22,10,21,28.00
2006,07,22,10,22,28.10
2006,07,22,10,23,28.20
2006,07,22,10,24,28.30
2006,07,22,10,25,28.50
2006,07,22,10,26,28.60
2006,07,22,10,27,28.70
2006,07,22,10,28,28.80
2006,07,22,10,29,28.90
2006,07,22,10,30,28.90
2006,07,22,10,31,28.90
2006,07,22,10,32,28.90
2006,07,22,10,33,29.00
2006,07,22,10,34,29.10
2006,07,22,10,35,29.20
2006,07,22,10,36,29.30
2006,07,22,10,37,29.30
2006,07,22,10,38,29.40
2006,07,22,10,39,29.20
2006,07,22,10,40,29.10
2006,07,22,10,41,28.80
2006,07,22,10,42,28.40
2006,07,22,10,43,27.90
2006,07,22,10,44,27.30
2006,07,22,10,45,26.90
2006,07,22,10,46,26.50
2006,07,22,10,47,26.10
2006,07,22,10,48,25.50
2006,07,22,10,49,25.20
2006,07,22,10,50,24.90
2006,07,22,10,51,24.70
2006,07,22,10,52,24.50
2006,07,22,10,53,24.50
2006,07,22,10,54,24.50
2006,07,22,10,55,24.50
2006,07,22,10,56,24.50
2006,07,22,10,57,24.50
2006,07,22,10,58,24.60
2006,07,22,10,59,24.60
2006,07,22,11,00,24.60
2006,07,22,11,01,24.60
2006,07,22,11,02,24.60
2006,07,22,11,03,24.70
2006,07,22,11,04,24.70
2006,07,22,11,05,24.70
2006,07,22,11,06,24.70
2006,07,22,11,07,24.70
2006,07,22,11,08,24.70
2006,07,22,11,09,24.60
2006,07,22,11,10,24.60
2006,07,22,11,11,24.60
2006,07,22,11,12,24.60
2006,07,22,11,13,24.60
2006,07,22,11,14,24.60
2006,07,22,11,15,24.60
2006,07,22,11,16,24.70
2006,07,22,11,17,24.70
2006,07,22,11,18,24.80
2006,07,22,11,19,24.90
2006,07,22,11,20,25.00
2006,07,22,11,21,25.00
2006,07,22,11,22,25.00
2006,07,22,11,23,25.00
2006,07,22,11,24,25.20
2006,07,22,11,25,25.30
2006,07,22,11,26,25.30
2006,07,22,11,27,25.30
2006,07,22,11,28,25.40
2006,07,22,11,29,25.40
2006,07,22,11,30,25.30
2006,07,22,11,31,25.20
2006,07,22,11,32,25.10
2006,07,22,11,33,25.20
2006,07,22,11,34,25.30
2006,07,22,11,35,25.30
2006,07,22,11,36,25.40
2006,07,22,11,37,25.60
2006,07,22,11,38,25.70
2006,07,22,11,39,25.70
2006,07,22,11,40,25.70
2006,07,22,11,41,25.90
2006,07,22,11,42,25.90
2006,07,22,11,43,26.00
2006,07,22,11,44,26.10
2006,07,22,11,45,26.20
2006,07,22,11,46,26.30
2006,07,22,11,47,26.40
2006,07,22,11,48,26.40
2006,07,22,11,49,26.60
2006,07,22,11,50,26.60
2006,07,22,11,51,26.70
2006,07,22,11,52,26.70
2006,07,22,11,53,26.70
2006,07,22,11,54,26.70
2006,07,22,11,55,26.70
2006,07,22,11,56,26.70
2006,07,22,11,57,26.80
2006,07,22,11,58,26.80
2006,07,22,11,59,26.80
2006,07,22,12,00,26.90
2006,07,22,12,01,27.00
2006,07,22,12,02,27.10
2006,07,22,12,03,27.30
2006,07,22,12,04,27.50
2006,07,22,12,05,27.60
2006,07,22,12,06,27.80
2006,07,22,12,07,27.90
2006,07,22,12,08,28.00
2006,07,22,12,09,28.00
2006,07,22,12,10,28.00
2006,07,22,12,11,28.10
2006,07,22,12,12,28.20
2006,07,22,12,13,28.30
2006,07,22,12,14,28.40
2006,07,22,12,15,28.50
2006,07,22,12,16,28.60
2006,07,22,12,17,28.70
2006,07,22,12,18,28.70
2006,07,22,12,19,28.70
2006,07,22,12,20,28.70
2006,07,22,12,21,28.80
2006,07,22,12,22,28.80
2006,07,22,12,23,28.90
2006,07,22,12,24,28.90
2006,07,22,12,25,28.90
2006,07,22,12,26,28.90
2006,07,22,12,27,29.00
2006,07,22,12,28,29.10
2006,07,22,12,29,29.20
2006,07,22,12,30,29.40
2006,07,22,12,31,29.40
2006,07,22,12,32,29.50
2006,07,22,12,33,29.50
2006,07,22,12,34,29.60
2006,07,22,12,35,29.70
2006,07,22,12,36,29.80
2006,07,22,12,37,29.80
2006,07,22,12,38,29.80
2006,07,22,12,39,30.00
2006,07,22,12,40,30.10
2006,07,22,12,41,30.20
2006,07,22,12,42,30.30
2006,07,22,12,43,30.50
2006,07,22,12,44,30.60
2006,07,22,12,45,30.80
2006,07,22,12,46,30.90
2006,07,22,12,47,30.90
2006,07,22,12,48,31.10
2006,07,22,12,49,31.30
2006,07,22,12,50,31.60
2006,07,22,12,51,31.80
2006,07,22,12,52,32.10
2006,07,22,12,53,32.30
2006,07,22,12,54,32.50
2006,07,22,12,55,32.80
2006,07,22,12,56,32.90
2006,07,22,12,57,33.00
2006,07,22,12,58,33.10
2006,07,22,12,59,33.00
2006,07,22,13,00,32.90
2006,07,22,13,01,32.70
2006,07,22,13,02,32.50
2006,07,22,13,03,32.30
2006,07,22,13,04,32.20
2006,07,22,13,05,32.00
2006,07,22,13,06,31.80
2006,07,22,13,07,31.50
2006,07,22,13,08,31.40
2006,07,22,13,09,31.30
2006,07,22,13,10,31.20
2006,07,22,13,11,31.10
2006,07,22,13,12,31.10
2006,07,22,13,13,31.10
2006,07,22,13,14,31.20
2006,07,22,13,15,31.20
2006,07,22,13,16,31.20
2006,07,22,13,17,31.20
2006,07,22,13,18,31.20
2006,07,22,13,19,31.30
2006,07,22,13,20,31.30
2006,07,22,13,21,31.30
2006,07,22,13,22,31.30
2006,07,22,13,23,31.30
2006,07,22,13,24,31.30
2006,07,22,13,25,31.40
2006,07,22,13,26,31.50
2006,07,22,13,27,31.60
2006,07,22,13,28,31.60
2006,07,22,13,29,31.60
2006,07,22,13,30,31.60
2006,07,22,13,31,31.60
2006,07,22,13,32,31.70
2006,07,22,13,33,31.60
2006,07,22,13,34,31.50
2006,07,22,13,35,31.40
2006,07,22,13,36,31.30
2006,07,22,13,37,31.40
2006,07,22,13,38,31.50
2006,07,22,13,39,31.60
2006,07,22,13,40,31.60
2006,07,22,13,41,31.60
2006,07,22,13,42,31.60
2006,07,22,13,43,31.70
2006,07,22,13,44,31.70
2006,07,22,13,45,31.70
2006,07,22,13,46,31.70
2006,07,22,13,47,31.70
2006,07,22,13,48,31.80
2006,07,22,13,49,31.90
2006,07,22,13,50,32.00
2006,07,22,13,51,32.20
2006,07,22,13,52,32.40
2006,07,22,13,53,32.20
2006,07,22,13,54,31.70
2006,07,22,13,55,31.40
2006,07,22,13,56,30.90
2006,07,22,13,57,30.50
2006,07,22,13,58,30.20
2006,07,22,13,59,30.20
2006,07,22,14,00,30.20
2006,07,22,14,01,30.10
2006,07,22,14,02,29.90
2006,07,22,14,03,29.80
2006,07,22,14,04,29.80
2006,07,22,14,05,29.70
2006,07,22,14,06,29.70
2006,07,22,14,07,29.70
2006,07,22,14,08,29.80
2006,07,22,14,09,29.80
2006,07,22,14,10,29.80
2006,07,22,14,11,29.80
2006,07,22,14,12,29.80
2006,07,22,14,13,29.90
2006,07,22,14,14,29.90
2006,07,22,14,15,29.90
2006,07,22,14,16,30.00
2006,07,22,14,17,30.10
2006,07,22,14,18,30.10
2006,07,22,14,19,30.10
2006,07,22,14,20,30.10
2006,07,22,14,21,30.20
2006,07,22,14,22,30.20
2006,07,22,14,23,30.20
2006,07,22,14,24,30.10
2006,07,22,14,25,30.10
2006,07,22,14,26,30.10
2006,07,22,14,27,30.10
2006,07,22,14,28,30.10
2006,07,22,14,29,30.10
2006,07,22,14,30,30.00
2006,07,22,14,31,30.10
2006,07,22,14,32,30.10
2006,07,22,14,33,30.10
2006,07,22,14,34,30.20
2006,07,22,14,35,30.20
2006,07,22,14,36,30.30
2006,07,22,14,37,30.30
2006,07,22,14,38,30.40
2006,07,22,14,39,30.40
2006,07,22,14,40,30.50
2006,07,22,14,41,30.60
2006,07,22,14,42,30.70
2006,07,22,14,43,30.80
2006,07,22,14,44,30.80
2006,07,22,14,45,30.80
2006,07,22,14,46,30.60
2006,07,22,14,47,30.60
2006,07,22,14,48,30.60
2006,07,22,14,49,30.60
2006,07,22,14,50,30.70
2006,07,22,14,51,30.80
2006,07,22,14,52,30.80
2006,07,22,14,53,30.90
2006,07,22,14,54,31.00
2006,07,22,14,55,31.10
2006,07,22,14,56,31.30
2006,07,22,14,57,31.40
2006,07,22,14,58,31.40
2006,07,22,14,59,31.40
2006,07,22,15,00,31.30
2006,07,22,15,01,31.30
2006,07,22,15,02,31.30
2006,07,22,15,03,31.20
2006,07,22,15,04,31.10
2006,07,22,15,05,31.00
2006,07,22,15,06,30.90
2006,07,22,15,07,31.00
2006,07,22,15,08,30.90
2006,07,22,15,09,30.90
2006,07,22,15,10,30.90
2006,07,22,15,11,30.80
2006,07,22,15,12,30.80
2006,07,22,15,13,30.80
2006,07,22,15,14,30.80
2006,07,22,15,15,30.90
2006,07,22,15,16,30.80
2006,07,22,15,17,30.80
2006,07,22,15,18,30.80
2006,07,22,15,19,30.80
2006,07,22,15,20,30.80
2006,07,22,15,21,30.80
2006,07,22,15,22,30.90
2006,07,22,15,23,31.00
2006,07,22,15,24,31.20
2006,07,22,15,25,31.30
2006,07,22,15,26,31.30
2006,07,22,15,27,31.40
2006,07,22,15,28,31.40
2006,07,22,15,29,31.50
2006,07,22,15,30,31.60
2006,07,22,15,31,31.60
2006,07,22,15,32,31.60
2006,07,22,15,33,31.60
2006,07,22,15,34,31.60
2006,07,22,15,35,31.60
2006,07,22,15,36,31.60
2006,07,22,15,37,31.50
2006,07,22,15,38,31.40
2006,07,22,15,39,31.40
2006,07,22,15,40,31.40
2006,07,22,15,41,31.50
2006,07,22,15,42,31.60
2006,07,22,15,43,31.80
2006,07,22,15,44,31.90
2006,07,22,15,45,31.90
2006,07,22,15,46,31.90
2006,07,22,15,47,31.90
2006,07,22,15,48,31.90
2006,07,22,15,49,31.90
2006,07,22,15,50,31.90
2006,07,22,15,51,32.00
2006,07,22,15,52,32.10
2006,07,22,15,53,32.30
2006,07,22,15,54,32.50
2006,07,22,15,55,32.60
2006,07,22,15,56,32.60
2006,07,22,15,57,32.60
2006,07,22,15,58,32.60
2006,07,22,15,59,32.60
2006,07,22,16,00,32.50
2006,07,22,16,01,32.40
2006,07,22,16,02,32.40
2006,07,22,16,03,32.40
2006,07,22,16,04,32.50
2006,07,22,16,05,32.50
2006,07,22,16,06,32.40
2006,07,22,16,07,32.40
2006,07,22,16,08,32.40
2006,07,22,16,09,32.30
2006,07,22,16,10,32.20
2006,07,22,16,11,32.20
2006,07,22,16,12,32.20
2006,07,22,16,13,32.20
2006,07,22,16,14,32.20
2006,07,22,16,15,32.20
2006,07,22,16,16,32.20
2006,07,22,16,17,32.30
2006,07,22,16,18,32.30
2006,07,22,16,19,32.30
2006,07,22,16,20,32.20
2006,07,22,16,21,32.20
2006,07,22,16,22,32.20
2006,07,22,16,23,32.30
2006,07,22,16,24,32.30
2006,07,22,16,25,32.40
2006,07,22,16,26,32.50
2006,07,22,16,27,32.50
2006,07,22,16,28,32.60
2006,07,22,16,29,32.60
2006,07,22,16,30,32.60
2006,07,22,16,31,32.60
2006,07,22,16,32,32.60
2006,07,22,16,33,32.60
2006,07,22,16,34,32.70
2006,07,22,16,35,32.70
2006,07,22,16,36,32.60
2006,07,22,16,37,32.60
2006,07,22,16,38,32.60
2006,07,22,16,39,32.50
2006,07,22,16,40,32.40
2006,07,22,16,41,32.20
2006,07,22,16,42,32.10
2006,07,22,16,43,32.10
2006,07,22,16,44,32.10
2006,07,22,16,45,31.90
2006,07,22,16,46,31.60
2006,07,22,16,47,31.60
2006,07,22,16,48,31.60
2006,07,22,16,49,31.50
2006,07,22,16,50,31.40
2006,07,22,16,51,31.30
2006,07,22,16,52,31.20
2006,07,22,16,53,31.20
2006,07,22,16,54,31.20
2006,07,22,16,55,31.10
2006,07,22,16,56,31.10
2006,07,22,16,57,31.10
2006,07,22,16,58,31.00
2006,07,22,16,59,31.00
2006,07,22,17,00,30.90
2006,07,22,17,01,30.90
2006,07,22,17,02,30.90
2006,07,22,17,03,30.90
2006,07,22,17,04,30.90
2006,07,22,17,05,31.00
2006,07,22,17,06,31.00
2006,07,22,17,07,31.00
2006,07,22,17,08,31.00
2006,07,22,17,09,31.10
2006,07,22,17,10,31.10
2006,07,22,17,11,31.10
2006,07,22,17,12,31.10
2006,07,22,17,13,31.10
2006,07,22,17,14,31.10
2006,07,22,17,15,31.10
2006,07,22,17,16,31.10
2006,07,22,17,17,31.20
2006,07,22,17,18,31.30
2006,07,22,17,19,31.30